Regional Weather Roundup
Issued by NWS

Home | Current Version | Previous Version | Text Only | Print | Product List | Glossary On
Versions: 1 2 3 4 5 6 7 8 9 10 11 12 13 14 15 16 17 18 19 20 21 22 23 24 25 26 27 28 29 30 31 32 33 34 35 36 37 38 39 40 41 42 43 44 45 46 47 48 49 50
000
ASUS45 KBOU 051507
RWRCO

WEATHER ROUNDUP FOR COLORADO
NATIONAL WEATHER SERVICE DENVER/BOULDER CO
900 AM MDT SAT SEP 05 2015

NOTE: "FAIR" INDICATES FEW OR NO CLOUDS BELOW 12000 FEET WITH NO
SIGNIFICANT WEATHER AND/OR OBSTRUCTIONS TO VISIBILITY.

COZ001>005-013-030-031-051600-
...NORTHWEST COLORADO...

CITY           SKY/WX    TMP DP  RH WIND       PRES   REMARKS
CRAIG          MOSUNNY   65  47  52 NE5       30.11S
HAYDEN         MOSUNNY   61  43  51 E10       30.13F
MEEKER         SUNNY     64  46  52 CALM      30.13S
MOUNT WERNER   NOT AVBL
STEAMBOAT SPGS MOSUNNY   57  46  67 E3        30.16F
WALDEN         MOSUNNY   55  43  62 S13G18    30.21F
$$

COZ006>008-011-051600-
...WEST CENTRAL VALLEYS...

CITY           SKY/WX    TMP DP  RH WIND       PRES   REMARKS
GRAND JUNCTION SUNNY     62  53  72 SE21      30.07S
MONTROSE       PTSUNNY   56  54  93 S6        30.18S
EAGLE          MOSUNNY   57  52  82 CALM      30.22S
RIFLE          MOSUNNY   60  54  80 NE3       30.14S
DELTA          RAIN      62  56  81 E6        30.15S
NUCLA          PTSUNNY   55  54  94 CALM      30.21R
$$

COZ017>023-064>068-051600-
...SOUTHWEST COLORADO...

CITY           SKY/WX    TMP DP  RH WIND       PRES   REMARKS
DURANGO        LGT RAIN  56  54  93 NE5       30.24F
CORTEZ         MOSUNNY   61  57  87 CALM      30.17S
PAGOSA SPRINGS CLOUDY    55  54  95 CALM      30.31R
TELLURIDE      CLOUDY    50  49  96 CALM      30.35S
WOLF CREEK PAS NOT AVBL
$$

COZ009-010-012-014-032>034-037-058>063-051600-
...CENTRAL COLORADO...

CITY           SKY/WX    TMP DP  RH WIND       PRES   REMARKS
ASPEN          PTSUNNY   54  49  83 S5        30.24F
BUENA VISTA    SUNNY     57  46  67 CALM      30.26R
COPPER MTN     MOSUNNY   46  36  66 SW7       30.48F
BERTHOUD PASS  FAIR      36  27  69 W32G39    30.47F
COTTONWOOD PAS MOSUNNY   55  37  50 NW3G17    30.36R
GUNNISON       MOSUNNY   54  48  82 CALM      30.31R
KREMMLING      MOSUNNY   59  45  58 SE5       30.24S
LEADVILLE      SUNNY     50  43  77 N5        30.35S
MONARCH PASS   FOG       39  37  93 W22       30.58S VSB<1/4
SALIDA         SUNNY     65  46  49 CALM      30.30S
SUNLIGHT       CLOUDY    46  45  93 CALM      30.43R FOG
WILKERSON PASS PTSUNNY   43  37  81 W8        30.46R
$$

COZ069>075-051600-
...SAN LUIS VALLEY/SANGRE DE CRISTO MOUNTAINS...

CITY           SKY/WX    TMP DP  RH WIND       PRES   REMARKS
ALAMOSA        CLOUDY    57  51  80 S7        30.26S
LA VETA PASS   CLOUDY    46  45  93 S8G18     30.40R
SAGUACHE       PTSUNNY   54  52  94 CALM      30.31R
$$

COZ035-036-038>040-051600-
...NORTHERN COLORADO FRONT RANGE...

CITY           SKY/WX    TMP DP  RH WIND       PRES   REMARKS
DENVER INTL AP PTSUNNY   74  47  38 W3        30.02R
DMNS CITY PARK   N/A     72  49  44 SE7       30.03S
AURORA         PTSUNNY   71  48  43 SW8       30.05R
FRONT RANGE AP PTSUNNY   73  45  35 W6        30.03R
ERIE MUNI ARPT CLOUDY    73  47  38 W3        30.00S
BOULDER MUN AP CLOUDY    73  43  33 W7        30.00S
CENTENNIAL     PTSUNNY   70  46  42 SW10      30.06R
BROOMFIELD     PTSUNNY   73  41  31 W17G25    30.04
FORT COLLINS   PTSUNNY   72  52  49 S7        30.00S
LONGMONT       PTSUNNY   70  53  53 CALM      30.01S
$$

COZ041-046-047-076>085-087-088-051600-
...PIKES PEAK/PALMER DIVIDE AND SOUTHERN FOOTHILLS...

CITY           SKY/WX    TMP DP  RH WIND       PRES   REMARKS
COLO. SPRINGS  PTSUNNY   70  47  43 NW6       30.10S
A. F. ACADEMY  PTSUNNY   67  42  39 W12       30.10F
ELLICOTT       PTSUNNY  N/A N/A N/A W6        30.08S
FALCON         PTSUNNY   67  42  38 W12       30.14S
FORT CARSON    PTSUNNY   65  54  69 N8        30.07S
LIMON          CLOUDY    63  52  67 CALM      30.03S
MONUMENT HILL  PTSUNNY   64  43  45 W6        30.14S
TRINIDAD       CLOUDY    73  51  46 W9        30.11S
$$

COZ042>045-048>051-090-091-051600-
...NORTHEAST COLORADO...

CITY           SKY/WX    TMP DP  RH WIND       PRES   REMARKS
GREELEY ARPT   PTSUNNY   72  55  56 S6        29.99R
AKRON          CLOUDY    69  51  52 W12       29.96R
BURLINGTON     CLOUDY    76  51  41 S15G24    29.96S
WRAY           CLOUDY    77  51  40 SW13      29.91R
STERLING       CLOUDY    64  59  82 S5        29.90F
HOLYOKE        CLOUDY    77  54  44 SW6       29.90S
FORT MORGAN    CLOUDY    67  53  60 W7        29.96R
$$

COZ086-089-092>099-051600-
...SOUTHEAST COLORADO...

CITY           SKY/WX    TMP DP  RH WIND       PRES   REMARKS
PUEBLO         CLOUDY    73  52  47 S8        30.01S
LA JUNTA       CLOUDY    81  51  35 SW14      29.99S
LAMAR          PTSUNNY   84  55  36 SW9       29.95R
SPRINGFIELD      N/A     79  52  38 SW21G28   30.04R
$$




USA.gov is the U.S. government's official web portal to all federal, state and local government web resources and services.